Regional Weather Roundup
Issued by NWS

Home | Current Version | Previous Version | Text Only | Print | Product List | Glossary Off
Versions: 1 2 3 4 5 6 7 8 9 10 11 12 13 14 15 16 17 18 19 20 21 22 23 24 25 26 27 28 29 30 31 32 33 34 35 36 37 38 39 40 41 42 43 44 45 46 47 48 49 50

000
ASUS45 KPSR 201210
RWRAZ

ARIZONA HOURLY REGIONAL WEATHER ROUNDUP
NATIONAL WEATHER SERVICE PHOENIX AZ
500 AM MST MON FEB 20 2017

NOTE: FAIR INDICATES FEW OR NO CLOUDS BELOW 12,000 FEET WITH NO
SIGNIFICANT WEATHER AND/OR OBSTRUCTIONS TO VISIBILITY.

AZZ001>003-036-201300-
NORTHWEST ARIZONA

CITY           SKY/WX    TMP DP  RH WIND       PRES   REMARKS
BULLHEAD CITY  MOCLDY    55  50  82 SE6       30.13R
KINGMAN        CLOUDY    43  38  82 E5        30.15R
6HR MIN TEMP:  39; 6HR MAX TEMP:  47;

$$

AZZ004>008-015-016-018-201300-
NORTH CENTRAL ARIZONA

CITY           SKY/WX    TMP DP  RH WIND       PRES   REMARKS
GRAND CANYON   CLOUDY    35  35 100 SW3       30.17S
6HR MIN TEMP:  34; 6HR MAX TEMP:  35;

WILLIAMS       CLOUDY    36  32  87 CALM      30.17S
PRESCOTT       CLOUDY    42  37  82 SW6       30.16S
6HR MIN TEMP:  42; 6HR MAX TEMP:  43;

FLAGSTAFF      CLOUDY    33  28  81 W3        30.17R
6HR MIN TEMP:  33; 6HR MAX TEMP:  34; 6HR PCP: TRACE;

PAYSON         CLOUDY    41  39  93 CALM      30.20R
PAGE           MOCLDY    39  31  72 S6        30.12R WCI  35
6HR MIN TEMP:  39; 6HR MAX TEMP:  45;

$$

AZZ009>014-017-201300-
NORTHEAST ARIZONA

CITY           SKY/WX    TMP DP  RH WIND       PRES   REMARKS
WINSLOW        CLEAR     30  28  92 CALM      30.16R
6HR MIN TEMP:  30; 6HR MAX TEMP:  37;

SAINT JOHNS    CLOUDY    40  32  73 W8        30.16R WCI  34
6HR MIN TEMP:  36; 6HR MAX TEMP:  42;

WINDOW ROCK    CLOUDY    36  31  82 W13       30.16R WCI  27
6HR MIN TEMP:  36; 6HR MAX TEMP:  38; 6HR PCP: TRACE;

SHOW LOW       CLOUDY    34  32  93 SW5       30.18S WCI  30
$$

AZZ023-201300-
GREATER PHOENIX AREA

CITY           SKY/WX    TMP DP  RH WIND       PRES   REMARKS
PHOENIX        PTCLDY    52  49  89 E5        30.15R
6HR MIN TEMP:  51; 6HR MAX TEMP:  55;

BUCKEYE        CLEAR     48  48 100 N3        30.16R
LUKE AFB       CLEAR     48 N/A N/A NW6       30.15R
6HR MIN TEMP:  48; 6HR MAX TEMP:  53;

DEER VALLEY    CLEAR     51  51 100 E3        30.15R
6HR MIN TEMP:  51; 6HR MAX TEMP:  54; 6HR PCP: TRACE;

SCOTTSDALE     MOCLDY    51  49  92 CALM      30.12R
6HR MIN TEMP:  50; 6HR MAX TEMP:  55;

MESA-GATEWAY   MOCLDY    46  46 100 E7        30.17R
$$

AZZ027-028-201300-
SOUTHWEST MARICOPA COUNTY AND PINAL COUNTY

CITY           SKY/WX    TMP DP  RH WIND       PRES   REMARKS
CASA GRANDE    NOT AVBL
GILA BEND      FAIR      49  47  93 SE6       30.14R
6HR MIN TEMP:  49; 6HR MAX TEMP:  55;

$$

AZZ503-504-507>509-201300-
SOUTHEAST ARIZONA

CITY           SKY/WX    TMP DP  RH WIND       PRES   REMARKS
TUCSON         MOCLDY    52  48  86 CALM      30.18S
6HR MIN TEMP:  51; 6HR MAX TEMP:  52; 6HR PCP:  0.01;

DAVIS-MONTHAN  CLOUDY    49  49 100 SE3       30.17S
6HR MIN TEMP:  49; 6HR MAX TEMP:  51; 6HR PCP:  0.01;

NOGALES        CLOUDY    45  42  89 E3        30.18R
6HR MIN TEMP:  43; 6HR MAX TEMP:  46;

SIERRA VISTA   MOCLDY    41  39  95 N3        30.19R
6HR MIN TEMP:  40; 6HR MAX TEMP:  44;

DOUGLAS        CLOUDY    42  41  96 CALM      30.18R
6HR MIN TEMP:  39; 6HR MAX TEMP:  44;

SAFFORD        PTCLDY    45  42  89 CALM      30.15R
6HR MIN TEMP:  41; 6HR MAX TEMP:  50; 6HR PCP: TRACE;

$$

AZZ020-021-025-026-031-201300-
SOUTHWEST ARIZONA

CITY           SKY/WX    TMP DP  RH WIND       PRES   REMARKS
YUMA           CLEAR     56  51  84 E5        30.13R
6HR MIN TEMP:  54; 6HR MAX TEMP:  61;

$$

CAZ031-033-041-043-047-048-061-201300-
SOUTHERN CALIFORNIA

CITY           SKY/WX    TMP DP  RH WIND       PRES   REMARKS
DOWNTOWN L.A.  CLOUDY    55  51  86 E3        30.18S
6HR MIN TEMP:  54; 6HR MAX TEMP:  57; 6HR PCP:  0.03;

L.A. AIRPORT   CLOUDY    53  53 100 E6        30.19R FOG
6HR MIN TEMP:  53; 6HR MAX TEMP:  56; 6HR PCP:  0.05;

SAN DIEGO      CLOUDY    56  45  66 E3        30.21S
6HR MIN TEMP:  56; 6HR MAX TEMP:  58; 6HR PCP: TRACE;

BURBANK        CLOUDY    51  48  89 S7        30.17R
6HR MIN TEMP:  51; 6HR MAX TEMP:  53; 6HR PCP:  0.04;

ONTARIO        CLOUDY    50  49  96 CALM      30.18S FOG
6HR MIN TEMP:  50; 6HR MAX TEMP:  52; 6HR PCP: TRACE;

RIVERSIDE      CLOUDY    51  50  96 CALM      30.19R
6HR MIN TEMP:  51; 6HR MAX TEMP:  54;

PALM SPRINGS   PTCLDY    56  50  80 CALM      30.12S
6HR MIN TEMP:  56; 6HR MAX TEMP:  60;

EL CENTRO NAS  PTCLDY    53  43  68 CALM      30.13R
6HR MIN TEMP:  52; 6HR MAX TEMP:  60;

IMPERIAL       PTCLDY    55  44  66 CALM      30.11R
6HR MIN TEMP:  54; 6HR MAX TEMP:  58;

BLYTHE         CLEAR     52  49  89 S5        30.13R
6HR MIN TEMP:  52; 6HR MAX TEMP:  58;

NEEDLES        MOCLDY    54  49  83 W3        30.12R
6HR MIN TEMP:  54; 6HR MAX TEMP:  59;

$$

NVZ020-UTZ003-201300-
SOUTHERN NEVADA-UTAH

CITY           SKY/WX    TMP DP  RH WIND       PRES   REMARKS
LAS VEGAS      CLOUDY    54  46  74 CALM      30.05R
6HR MIN TEMP:  52; 6HR MAX TEMP:  56;

SALT LAKE CITY MOCLDY    45  35  68 S18G26    29.95S
6HR MIN TEMP:  41; 6HR MAX TEMP:  46;

$$

NMZ009-TXZ055-201300-
NEW MEXICO-WEST TEXAS

CITY           SKY/WX    TMP DP  RH WIND       PRES   REMARKS
ALBUQUERQUE    CLOUDY    42  33  70 W3        30.07R
6HR MIN TEMP:  40; 6HR MAX TEMP:  43;

EL PASO        PTCLDY    49  34  56 W21G37    30.06R
6HR MIN TEMP:  47; 6HR MAX TEMP:  51;

$$


........................KEY........................
SKY/WX - SKY CONDITION/WEATHER
TMP    - TEMPERATURE IN FAHRENHEIT
DP     - DEW POINT IN FAHRENHEIT
RH     - RELATIVE HUMIDITY IN PERCENT
WIND   - DIRECTION AND SPEED IN MILES PER HOUR (MPH)
VRB    - VARIABLE WIND DIRECTION
PRES   - MEAN SEA LEVEL PRESSURE IN INCHES OF MERCURY
         F - FALLING PRESSURE   R - RISING PRESSURE
         S - STEADY PRESSURE
VSB    - VISIBILITY IN MILES
HX     - HEAT INDEX IN FAHRENHEIT
WCI    - WIND CHILL INDEX IN FAHRENHEIT
TC     - TEMPERATURE IN CELSIUS WHICH IS ALSO KNOWN AS
         TEMPERATURE IN CENTIGRADE
AFB    - AIR FORCE BASE
         LUKE AFB IS LUKE AIR FORCE BASE
         DAVIS-MONTHAN IS DAVIS-MONTHAN AIR FORCE BASE
NAS    - NAVAL AIR STATION
         EL CENTRO NAS IS EL CENTRO NAVAL AIR STATION
N/A    - NOT AVAILABLE




USA.gov is the U.S. government's official web portal to all federal, state and local government web resources and services.